Overview Statistics Trail Chart Weather Telemetry Raw packets
 

This is the latest recevied weather packets stored in our database for station/object SR8WXL-13. If no packets are shown the sender has not sent any weather packets the latest 10 day(s).

<< 8 9 10 11 12 13 14 >>
Time Temp. Humidity Pressure Rain* Wind** Luminosity Snow
1788454477 20° C 74% 1031.9 hPa 0 mm - - -
1788453726 20° C 72% 1032 hPa 0 mm - - -
1788452924 20° C 69% 1032.1 hPa 0 mm - - -
1788452124 21.11° C 66% 1032 hPa 0 mm - - -
1788451393 21.11° C 66% 1032.4 hPa 0 mm - - -
1788450534 21.11° C 65% 1032.1 hPa 0 mm - - -
1788449678 21.11° C 64% 1032.2 hPa 0 mm - - -
1788448912 21.11° C 64% 1032.3 hPa 0 mm - - -
1788448108 22.22° C 62% 1032.5 hPa 0 mm - - -
1788447319 22.22° C 60% 1032.3 hPa 0 mm - - -
1788446599 22.22° C 62% 1032.3 hPa 0 mm - - -
1788445759 22.22° C 62% 1032.1 hPa 0 mm - - -
1788444960 22.22° C 61% 1032.2 hPa 0 mm - - -
1788444091 22.22° C 61% 1032.3 hPa 0 mm - - -
1788443303 22.22° C 60% 1032.5 hPa 0 mm - - -
1788442517 22.22° C 60% 1032.6 hPa 0 mm - - -
1788441749 22.78° C 60% 1032.4 hPa 0 mm - - -
1788440902 23.89° C 58% 1032.6 hPa 0 mm - - -
1788440138 22.22° C 62% 1032.6 hPa 0 mm - - -
1788439330 22.78° C 58% 1032.4 hPa 0 mm - - -
1788438609 23.89° C 58% 1032.5 hPa 0 mm - - -
1788437885 23.89° C 57% 1032.7 hPa 0 mm - - -
1788437074 22.78° C 61% 1032.5 hPa 0 mm - - -
1788436249 22.78° C 59% 1032.8 hPa 0 mm - - -
1788435378 22.78° C 61% 1032.8 hPa 0 mm - - -

* Rain latest hour (hover to see other rain measurements)
** Current wind speed in m/s (hover to see current wind gust speed)